| time (UTC) | temp F | wind direction | speed MPH | gust MPH | rain 1hr in | rain 24hr in | rain mn in | humidity % | barometer mb |
| 20260510140046 | 50 | 248 | 2.0 | 10.0 | 0.00 | 0.12 | 0.00 | 63 | 1015.7 |
| 20260510134544 | 49 | 284 | 3.0 | 15.0 | 0.00 | 0.12 | 0.00 | 62 | 1015.5 |
| 20260510133140 | 49 | 288 | 2.0 | 10.0 | 0.00 | 0.12 | 0.00 | 65 | 1015.2 |
| 20260510131541 | 48 | 293 | 3.0 | 11.0 | 0.00 | 0.12 | 0.00 | 67 | 1015.2 |
| 20260510130038 | 48 | 240 | 4.0 | 11.0 | 0.00 | 0.12 | 0.00 | 67 | 1015.1 |
| 20260510124557 | 47 | 187 | 0.0 | 7.0 | 0.00 | 0.12 | 0.00 | 72 | 1015.0 |
| 20260510123035 | 47 | 274 | 2.0 | 5.0 | 0.00 | 0.12 | 0.00 | 73 | 1014.8 |
| 20260510121532 | 46 | 22 | 2.0 | 7.0 | 0.00 | 0.12 | 0.00 | 73 | 1014.8 |
| 20260510120032 | 46 | 317 | 1.0 | 6.0 | 0.00 | 0.12 | 0.00 | 75 | 1014.6 |
| 20260510114527 | 46 | 277 | 2.0 | 7.0 | 0.00 | 0.12 | 0.00 | 76 | 1014.5 |
| 20260510113029 | 46 | 271 | 1.0 | 7.0 | 0.00 | 0.12 | 0.00 | 78 | 1014.2 |
| 20260510111531 | 46 | 285 | 2.0 | 9.0 | 0.00 | 0.12 | 0.00 | 78 | 1013.9 |
| 20260510110017 | 46 | 281 | 3.0 | 10.0 | 0.00 | 0.12 | 0.00 | 81 | 1013.5 |
| 20260510104522 | 46 | 281 | 1.0 | 8.0 | 0.00 | 0.12 | 0.00 | 81 | 1013.1 |
| 20260510103009 | 46 | 295 | 3.0 | 7.0 | 0.00 | 0.12 | 0.00 | 80 | 1012.5 |
| 20260510101507 | 46 | 267 | 1.0 | 4.0 | 0.00 | 0.12 | 0.00 | 79 | 1012.4 |
| 20260510100005 | 47 | 309 | 1.0 | 4.0 | 0.00 | 0.12 | 0.00 | 78 | 1012.3 |
| 20260510094505 | 47 | 298 | 1.0 | 6.0 | 0.00 | 0.12 | 0.00 | 77 | 1012.2 |
| 20260510093002 | 47 | 290 | 0.0 | 3.0 | 0.00 | 0.12 | 0.00 | 78 | 1011.3 |
| 20260510091610 | 47 | 291 | 0.0 | 4.0 | 0.00 | 0.12 | 0.00 | 78 | 1011.4 |
| 20260510090114 | 47 | 277 | 1.0 | 4.0 | 0.00 | 0.12 | 0.00 | 79 | 1011.8 |
| 20260510084605 | 47 | 254 | 1.0 | 6.0 | 0.00 | 0.12 | 0.00 | 80 | 1011.1 |
| 20260510083103 | 47 | 296 | 1.0 | 7.0 | 0.00 | 0.12 | 0.00 | 85 | 1011.2 |
| 20260510081552 | 47 | 292 | 2.0 | 8.0 | 0.00 | 0.12 | 0.00 | 92 | 1011.1 |
| 20260510080056 | 48 | 263 | 1.0 | 6.0 | 0.00 | 0.12 | 0.00 | 95 | 1010.7 |
| 20260510074546 | 49 | 263 | 1.0 | 4.0 | 0.00 | 0.12 | 0.00 | 96 | 1010.6 |
| 20260510073044 | 49 | 294 | 0.0 | 2.0 | 0.00 | 0.12 | 0.00 | 96 | 1010.2 |
| 20260510071543 | 49 | 295 | 0.0 | 4.0 | 0.00 | 0.12 | 0.00 | 96 | 1010.1 |
| 20260510070045 | 49 | 272 | 0.0 | 3.0 | 0.00 | 0.12 | 0.00 | 96 | 1010.0 |
| 20260510064555 | 49 | 283 | 0.0 | 5.0 | 0.00 | 0.12 | 0.00 | 96 | 1009.7 |
| 20260510063043 | 49 | 286 | 2.0 | 7.0 | 0.00 | 0.12 | 0.00 | 96 | 1009.6 |
| 20260510061545 | 49 | 291 | 0.0 | 0.0 | 0.00 | 0.12 | 0.00 | 96 | 1009.6 |
| 20260510060039 | 48 | 164 | 0.0 | 0.0 | 0.00 | 0.12 | 0.00 | 96 | 1009.4 |
| 20260510054532 | 48 | 164 | 0.0 | 0.0 | 0.00 | 0.12 | 0.00 | 95 | 1009.3 |
| 20260510053029 | 48 | 164 | 0.0 | 0.0 | 0.00 | 0.12 | 0.00 | 95 | 1009.1 |
| 20260510051528 | 48 | 164 | 0.0 | 0.0 | 0.00 | 0.12 | 0.00 | 94 | 1009.1 |
| 20260510050024 | 49 | 164 | 0.0 | 0.0 | 0.00 | 0.12 | 0.00 | 95 | 1008.8 |
| 20260510044530 | 49 | 164 | 0.0 | 0.0 | 0.00 | 0.12 | 0.00 | 94 | 1008.5 |
| 20260510043022 | 49 | 164 | 0.0 | 0.0 | 0.00 | 0.12 | 0.00 | 94 | 1008.6 |
| 20260510041519 | 49 | 157 | 0.0 | 0.0 | 0.00 | 0.12 | 0.00 | 93 | 1008.5 |
| 20260510040017 | 50 | 155 | 0.0 | 0.0 | 0.00 | 0.12 | 0.00 | 93 | 1008.4 |
| 20260510034516 | 50 | 137 | 0.0 | 0.0 | 0.00 | 0.12 | 0.12 | 93 | 1008.4 |
| 20260510033016 | 50 | 150 | 0.0 | 0.0 | 0.00 | 0.12 | 0.12 | 93 | 1008.3 |
| 20260510031515 | 51 | 136 | 0.0 | 0.0 | 0.00 | 0.12 | 0.12 | 93 | 1008.0 |
| 20260510030014 | 51 | 154 | 0.0 | 0.0 | 0.00 | 0.12 | 0.12 | 93 | 1007.9 |
| 20260510024514 | 51 | 167 | 0.0 | 3.0 | 0.00 | 0.12 | 0.12 | 94 | 1007.7 |
| 20260510023014 | 51 | 153 | 0.0 | 3.0 | 0.00 | 0.12 | 0.12 | 94 | 1007.7 |
| 20260510021514 | 51 | 137 | 0.0 | 3.0 | 0.00 | 0.12 | 0.12 | 94 | 1007.5 |
| 20260510020012 | 51 | 177 | 0.0 | 2.0 | 0.00 | 0.12 | 0.12 | 94 | 1007.3 |
| 20260510014515 | 51 | 128 | 0.0 | 2.0 | 0.00 | 0.12 | 0.12 | 94 | 1006.9 |
| 20260510013018 | 51 | 166 | 0.0 | 1.0 | 0.01 | 0.12 | 0.12 | 94 | 1007.2 |
| 20260510011512 | 51 | 138 | 0.0 | 3.0 | 0.04 | 0.12 | 0.12 | 93 | 1006.6 |
| 20260510010011 | 51 | 160 | 1.0 | 5.0 | 0.07 | 0.12 | 0.12 | 92 | 1006.5 |
| 20260510004509 | 52 | 154 | 1.0 | 5.0 | 0.12 | 0.12 | 0.12 | 91 | 1007.0 |
| 20260510003008 | 52 | 163 | 1.0 | 8.0 | 0.11 | 0.11 | 0.11 | 89 | 1007.3 |
| 20260510001508 | 53 | 244 | 3.0 | 12.0 | 0.08 | 0.08 | 0.08 | 84 | 1007.1 |
| 20260510000007 | 57 | 5 | 3.0 | 28.0 | 0.05 | 0.05 | 0.05 | 74 | 1007.1 |
| 20260509234517 | 62 | 139 | 0.0 | 2.0 | 0.00 | 0.00 | 0.00 | 65 | 1005.1 |
| 20260509233011 | 62 | 162 | 2.0 | 4.0 | 0.00 | 0.00 | 0.00 | 64 | 1004.8 |
| 20260509231505 | 63 | 175 | 2.0 | 4.0 | 0.00 | 0.00 | 0.00 | 62 | 1004.5 |
| 20260509230004 | 63 | 153 | 1.0 | 3.0 | 0.00 | 0.00 | 0.00 | 62 | 1004.6 |
| 20260509224502 | 64 | 178 | 0.0 | 3.0 | 0.00 | 0.00 | 0.00 | 61 | 1004.8 |
| 20260509223004 | 64 | 159 | 1.0 | 5.0 | 0.00 | 0.00 | 0.00 | 60 | 1004.9 |
| 20260509221501 | 64 | 209 | 3.0 | 10.0 | 0.00 | 0.00 | 0.00 | 59 | 1005.1 |
| 20260509220100 | 65 | 136 | 3.0 | 8.0 | 0.00 | 0.00 | 0.00 | 57 | 1005.1 |
| 20260509214601 | 65 | 175 | 2.0 | 5.0 | 0.00 | 0.00 | 0.00 | 56 | 1004.9 |
| 20260509213100 | 65 | 104 | 2.0 | 8.0 | 0.00 | 0.00 | 0.00 | 57 | 1005.1 |
| 20260509211603 | 65 | 126 | 3.0 | 11.0 | 0.00 | 0.00 | 0.00 | 58 | 1005.1 |
| 20260509210109 | 66 | 333 | 2.0 | 9.0 | 0.00 | 0.00 | 0.00 | 55 | 1004.9 |
| 20260509204557 | 67 | 224 | 1.0 | 8.0 | 0.00 | 0.00 | 0.00 | 58 | 1004.8 |
| 20260509203056 | 66 | 140 | 4.0 | 8.0 | 0.00 | 0.00 | 0.00 | 59 | 1004.9 |
| 20260509201600 | 65 | 155 | 1.0 | 14.0 | 0.00 | 0.00 | 0.00 | 59 | 1005.1 |
| 20260509194548 | 65 | 126 | 2.0 | 8.0 | 0.00 | 0.00 | 0.00 | 66 | 1005.5 |
| 20260509193053 | 65 | 88 | 2.0 | 9.0 | 0.00 | 0.00 | 0.00 | 66 | 1005.7 |
| 20260509191547 | 65 | 134 | 5.0 | 10.0 | 0.00 | 0.00 | 0.00 | 63 | 1005.8 |
| 20260509190051 | 66 | 149 | 5.0 | 9.0 | 0.00 | 0.00 | 0.00 | 63 | 1005.9 |
| 20260509184546 | 65 | 126 | 3.0 | 8.0 | 0.00 | 0.00 | 0.00 | 67 | 1006.2 |
| 20260509183042 | 67 | 207 | 3.0 | 9.0 | 0.00 | 0.00 | 0.00 | 61 | 1006.4 |
| 20260509181539 | 66 | 142 | 3.0 | 8.0 | 0.00 | 0.00 | 0.00 | 57 | 1006.6 |
| 20260509180036 | 66 | 254 | 3.0 | 8.0 | 0.00 | 0.00 | 0.00 | 54 | 1006.9 |
| 20260509174535 | 65 | 145 | 3.0 | 11.0 | 0.00 | 0.00 | 0.00 | 58 | 1006.9 |
| 20260509173033 | 63 | 241 | 0.0 | 9.0 | 0.00 | 0.00 | 0.00 | 65 | 1007.0 |
| 20260509171537 | 64 | 202 | 4.0 | 12.0 | 0.00 | 0.00 | 0.00 | 60 | 1007.1 |
| 20260509170029 | 63 | 128 | 4.0 | 9.0 | 0.00 | 0.00 | 0.00 | 65 | 1007.1 |
| 20260509164526 | 62 | 184 | 3.0 | 8.0 | 0.00 | 0.00 | 0.00 | 72 | 1007.3 |
| 20260509163046 | 62 | 123 | 2.0 | 7.0 | 0.00 | 0.00 | 0.00 | 74 | 1007.5 |
| 20260509161525 | 59 | 171 | 1.0 | 5.0 | 0.00 | 0.00 | 0.00 | 75 | 1007.9 |
| 20260509160018 | 61 | 138 | 1.0 | 6.0 | 0.00 | 0.00 | 0.00 | 72 | 1008.1 |
| 20260509154515 | 60 | 137 | 0.0 | 5.0 | 0.00 | 0.00 | 0.00 | 73 | 1008.2 |
| 20260509153020 | 59 | 151 | 0.0 | 3.0 | 0.00 | 0.00 | 0.00 | 76 | 1008.4 |
| 20260509151512 | 59 | 131 | 2.0 | 4.0 | 0.00 | 0.00 | 0.00 | 77 | 1008.5 |
| 20260509150009 | 58 | 140 | 2.0 | 5.0 | 0.00 | 0.00 | 0.00 | 77 | 1008.7 |
| 20260509144508 | 58 | 126 | 3.0 | 7.0 | 0.00 | 0.00 | 0.00 | 79 | 1008.7 |
| 20260509143006 | 57 | 134 | 2.0 | 5.0 | 0.00 | 0.00 | 0.00 | 78 | 1008.8 |
| 20260509141507 | 57 | 138 | 2.0 | 4.0 | 0.00 | 0.00 | 0.00 | 80 | 1008.9 |